Content
SEND FEEDBACK

Daily
Averages
Monthly
Summary
United States of America

TOKLAT, ALASKA


Home > North America > United States > Alaska
Elevation: 360 feet     Latitude: 64 33N     Longitude: 149 05W

WEATHER
 
SELECT A DAY
Number of Records: 185,116;   Date Range: 1/1/95 - 9/30/14
 
SHARE

PRINT THIS DATA

[ ← Previous Day ]
WEATHER ALMANAC - JANUARY 3, 2013
[ Next Day → ]
[ °C ]   °F
Weather ElementAverageHighLow
Temperature28 °F28.9 °F (4:53 am)26.1 °F (1:53 am)
Dewpoint13.2 °F16 °F (4:53 am)10.9 °F (4:53 pm)
Humidity54 %63 % (1:53 am)49 % (4:53 pm)
Barometer29.60 in29.64 in (12:53 pm)29.53 in (1:53 am)
Wind Speed13 mph17.3 mph (4:53 pm)
Wind Gust24.2 mph (11:53 pm)
Weather ElementAverage
Visibility10 mi
Wind DirectionENE (76.8 °)

Weather ElementTotal
Precipitation---
Heating Degree Days37.5 (Base 65)
Averaged from 22 records on January 3, 2013
WEATHER CONDITIONS BREAKOUT
WIND DIRECTION BREAKOUT
WEATHER BY HOUR - JANUARY 3, 2013
[ °C ]   °F
Local TimeTemperatureDewpointHumidityBarometerVisibilityWind DirectionWind SpeedGust SpeedPrecipitationEventsConditions
1:53 AM26.1 °F15.1 °F63 %29.53 in10.0 miEast (90°)10.4 mphClear
3:53 AM28.0 °F15.1 °F58 %29.55 in10.0 miENE (70°)13.8 mphClear
4:53 AM28.9 °F16.0 °F58 %29.55 in10.0 miEast (80°)15.0 mphClear
5:53 AM28.9 °F15.1 °F56 %29.55 in10.0 miEast (80°)11.5 mphClear
6:53 AM28.9 °F15.1 °F56 %29.57 in10.0 miEast (80°)11.5 mphClear
7:53 AM28.9 °F15.1 °F56 %29.58 in10.0 miEast (80°)10.4 mphClear
8:53 AM28.9 °F15.1 °F56 %29.59 in10.0 miEast (80°)13.8 mphClear
9:53 AM28.9 °F15.1 °F56 %29.60 in10.0 miEast (80°)13.8 mphClear
10:53 AM28.9 °F14.0 °F54 %29.61 in10.0 miEast (80°)10.4 mphClear
11:53 AM28.9 °F14.0 °F54 %29.63 in10.0 miEast (100°)8.1 mphClear
12:53 PM28.0 °F14.0 °F56 %29.64 in10.0 miEast (80°)9.2 mphClear
1:53 PM28.9 °F12.9 °F51 %29.63 in10.0 miEast (80°)11.5 mphClear
2:53 PM28.0 °F12.0 °F51 %29.63 in10.0 miENE (70°)15.0 mphClear
3:53 PM28.0 °F12.0 °F51 %29.63 in10.0 miENE (70°)16.1 mphClear
4:53 PM28.0 °F10.9 °F49 %29.62 in10.0 miEast (80°)17.3 mphClear
5:53 PM27.0 °F10.9 °F51 %29.61 in10.0 miENE (70°)13.8 mphClear
6:53 PM27.0 °F10.9 °F51 %29.62 in10.0 miEast (80°)12.7 mphMostly Cloudy
7:53 PM27.0 °F12.0 °F53 %29.61 in10.0 miEast (80°)13.8 mphMostly Cloudy
8:53 PM27.0 °F12.0 °F53 %29.60 in10.0 miENE (70°)15.0 mphOvercast
9:53 PM27.0 °F12.0 °F53 %29.60 in10.0 miENE (60°)16.1 mphOvercast
10:53 PM27.0 °F10.9 °F51 %29.61 in10.0 miENE (70°)12.7 mph21.9 mphOvercast
11:53 PM27.0 °F10.9 °F51 %29.61 in10.0 miENE (60°)13.8 mph24.2 mphScattered Clouds
Hourly data recorded from PANN, located miles away from Toklat, Alaska







STORIES FROM OUR PARTNERS